Location: Madrid
(40.4167°N, 3.7036°W)
Time: 01:12:19
(UTC+00:00)

ISS - Pass Details

Date: 01 November 2024
Orbit: 414 x 417 km, 51.6° (Epoch: 07 July)

Event Time Altitude Azimuth Distance (km) Brightness Sun altitude
Exits shadow 04:27:23 15° 37° (NE) 1,222 -1.0 -26.6°
Drops below altitude 10° 04:28:42 10° 58° (ENE) 1,494 -0.2 -26.4°
Enters shadow 05:25:17 -71° 290° (WNW) 12,496 3.6 -15.6°
Maximum altitude 06:03:55 66° 35° (NE) 457 -3.5 -8.4°
